Location: LDNL
(36.4545°S, 141.6685°E)
Time: 12:39:58
(UTC+10:00)

Tiros 1 despin weight - Pass Details

Date: 08 August 2022
Orbit: 590 x 639 km, 48.2° (Epoch: 23 September)

Event Time Altitude Azimuth Distance (km) Brightness Sun altitude
Rises 01:46:52 0° 308° (NW) 2,901 - -64.9°
Reaches altitude 10° 01:49:09 10° 309° (NW) 2,007 - -64.6°
Maximum altitude 01:53:47 85° 36° (NE) 647 - -63.9°
Drops below altitude 10° 01:58:32 10° 124° (SE) 2,047 - -63.2°
Sets 02:00:53 0° 124° (SE) 2,964 - -62.9°
